星链-30863 (STARLINK-30863 )

导读 | 星芒AI

STARLINK-30863 是 SpaceX Starlink 卫星互联网项目中的一颗低轨卫星,属于第三代星链卫星(v1.5 或 v2 版本)。该卫星于2023年发射,运行在约550公里高度的近地轨道,旨在为全球提供高速、低延迟的宽带互联网服务。它采用先进推进系统和激光通信技术,提升网络性能与卫星间通信能力,是实现全球覆盖和高可靠性通信网络的重要组成部分。

基本信息
目录编号:
59027
目录名称:
STARLINK-30863
国际标识:
2024-038E
轨道中心:
EARTH
卫星名称:
星链-30863
卫星全名:
星链-30863 (STARLINK-30863 )
卫星状态:
在轨 (已飞行614 天)
发射日期:
2024-02-25 UTC
国别 :
美国 (US)
星等 :
--
轨道信息
数据来源 国际轨道数据 AOE轨道数据
星历时间 2025-10-30T23:23:12+0800
22小时前
查看轨道信息
2025-10-28T06:00:00+0800
3天前
查看轨道信息
半长轴 6861.18km 6861.175km
偏心率 0.0001064 0.0001273
轨道倾角 43.000° 42.999°
近地点辐角 262.544° 257.791°
升交点赤经 41.902° 57.295°
平近点角 97.529° 222.253°
近地点 482.314km 482.166km
远地点 483.776km 483.914km
周期 94.267分钟 94.267分钟
每日圈数 15.275821 15.275838
详细信息
固有亮度:
5
最大亮度:
0.3
卫星平台:
Starlink v2.0 mini
覆盖范围:
全球
运营商:
太空探索技术公司
运营商所在国:
美国
制造商(研发单位):
太空探索技术公司
制造商所在国:
美国
使用方式:
暂无
卫星简介
星链(Starlink)计划是由太空探索技术公司(SpaceX)提出的一个巨型低轨卫星互联网星座项目,计划在2019年至2024年间在太空搭建由约1.2万颗卫星组成的“星链”网络,其中1584颗将部署在地球上空550千米处的近地轨道,并从2020年开始工作。该卫星仍在工作。
2D轨道图
3D轨道图
轨道高度分析图
轨道倾角分析图
轨道综合分析图
查看轨道综合分析图